TimeCDT,TemperatureF,Dew PointF,Humidity,Sea Level PressureIn,VisibilityMPH,Wind Direction,Wind SpeedMPH,Gust SpeedMPH,PrecipitationIn,Events,Conditions,WindDirDegrees,DateUTC
12:54 AM,60.1,57.9,93,29.56,10.0,Calm,Calm,-,N/A,,Clear,0,2013-05-21 05:54:00
1:54 AM,60.1,57.9,93,29.57,10.0,SSE,5.8,-,N/A,,Clear,160,2013-05-21 06:54:00
2:54 AM,61.0,57.9,90,29.55,10.0,SSE,9.2,-,N/A,,Overcast,160,2013-05-21 07:54:00
3:54 AM,60.1,57.0,90,29.53,10.0,South,5.8,-,N/A,,Clear,180,2013-05-21 08:54:00
4:54 AM,60.1,57.9,93,29.53,10.0,SSW,10.4,-,N/A,,Overcast,200,2013-05-21 09:54:00
5:54 AM,61.0,59.0,93,29.56,10.0,SSW,10.4,-,N/A,,Overcast,200,2013-05-21 10:54:00
6:54 AM,61.0,57.9,90,29.57,10.0,SSW,12.7,-,N/A,,Mostly Cloudy,210,2013-05-21 11:54:00
7:54 AM,62.1,57.0,84,29.59,10.0,WSW,12.7,-,N/A,,Clear,240,2013-05-21 12:54:00
8:54 AM,62.1,55.9,80,29.61,10.0,West,12.7,19.6,N/A,,Overcast,260,2013-05-21 13:54:00
9:47 AM,62.6,55.4,77,29.62,10.0,West,9.2,-,N/A,,Overcast,260,2013-05-21 14:47:00
9:54 AM,63.0,57.0,81,29.62,10.0,WSW,13.8,-,N/A,,Overcast,240,2013-05-21 14:54:00
10:54 AM,64.0,55.0,73,29.65,10.0,SW,15.0,-,N/A,,Overcast,230,2013-05-21 15:54:00
11:54 AM,63.0,54.0,72,29.64,10.0,SW,13.8,-,N/A,,Overcast,230,2013-05-21 16:54:00
12:54 PM,64.9,54.0,68,29.66,10.0,SW,15.0,21.9,N/A,,Overcast,220,2013-05-21 17:54:00
1:54 PM,66.9,53.1,61,29.65,10.0,WSW,18.4,24.2,N/A,,Overcast,240,2013-05-21 18:54:00
2:54 PM,68.0,53.1,59,29.65,10.0,WSW,16.1,24.2,N/A,,Mostly Cloudy,240,2013-05-21 19:54:00
3:54 PM,66.0,52.0,60,29.65,10.0,WSW,12.7,-,N/A,,Overcast,250,2013-05-21 20:54:00
4:54 PM,68.0,52.0,56,29.65,10.0,SW,15.0,20.7,N/A,,Mostly Cloudy,230,2013-05-21 21:54:00
5:54 PM,68.0,52.0,56,29.64,10.0,WSW,10.4,-,N/A,,Overcast,240,2013-05-21 22:54:00
6:54 PM,66.0,51.1,59,29.65,10.0,West,6.9,-,N/A,,Overcast,260,2013-05-21 23:54:00
7:54 PM,64.0,53.1,67,29.66,10.0,WSW,6.9,-,N/A,,Overcast,250,2013-05-22 00:54:00
8:54 PM,63.0,51.1,65,29.65,10.0,SW,5.8,-,N/A,,Overcast,230,2013-05-22 01:54:00
9:54 PM,62.1,52.0,70,29.66,10.0,SW,4.6,-,N/A,,Overcast,220,2013-05-22 02:54:00
10:54 PM,59.0,52.0,78,29.66,10.0,SW,5.8,-,N/A,,Mostly Cloudy,230,2013-05-22 03:54:00
11:54 PM,60.1,53.1,78,29.66,10.0,WSW,4.6,-,N/A,,Scattered Clouds,240,2013-05-22 04:54:00